| time (UTC) | temp F | wind direction | speed MPH | gust MPH | rain 1hr in | rain 24hr in | rain mn in | humidity % | barometer mb |
| 20260503002550 | 50 | 242 | 1.0 | 3.0 | 0.00 | 0.00 | 0.00 | 24 | 1026.0 |
| 20260503002047 | 50 | 265 | 0.0 | 2.0 | 0.00 | 0.00 | 0.00 | 24 | 1026.1 |
| 20260503001543 | 51 | 77 | 2.0 | 3.0 | 0.00 | 0.00 | 0.00 | 24 | 1026.1 |
| 20260503001041 | 51 | 258 | 0.0 | 2.0 | 0.00 | 0.00 | 0.00 | 23 | 1026.4 |
| 20260503000538 | 51 | 83 | 2.0 | 8.0 | 0.00 | 0.00 | 0.00 | 21 | 1025.8 |
| 20260503000035 | 52 | 183 | 1.0 | 2.0 | 0.00 | 0.00 | 0.00 | 22 | 1026.2 |
| 20260502235531 | 52 | 208 | 1.0 | 2.0 | 0.00 | 0.00 | 0.00 | 25 | 1026.0 |
| 20260502235030 | 51 | 276 | 2.0 | 3.0 | 0.00 | 0.00 | 0.00 | 22 | 1026.0 |
| 20260502234525 | 52 | 345 | 3.0 | 7.0 | 0.00 | 0.00 | 0.00 | 22 | 1026.1 |
| 20260502234023 | 53 | 225 | 4.0 | 6.0 | 0.00 | 0.00 | 0.00 | 22 | 1026.2 |
| 20260502233524 | 53 | 239 | 2.0 | 4.0 | 0.00 | 0.00 | 0.00 | 22 | 1026.1 |
| 20260502233021 | 52 | 342 | 1.0 | 3.0 | 0.00 | 0.00 | 0.00 | 22 | 1026.2 |
| 20260502232517 | 53 | 143 | 3.0 | 4.0 | 0.00 | 0.00 | 0.00 | 25 | 1026.2 |
| 20260502232014 | 53 | 59 | 3.0 | 6.0 | 0.00 | 0.00 | 0.00 | 23 | 1026.0 |
| 20260502231511 | 52 | 262 | 1.0 | 6.0 | 0.00 | 0.00 | 0.00 | 24 | 1026.2 |
| 20260502231009 | 51 | 296 | 0.0 | 4.0 | 0.00 | 0.00 | 0.00 | 26 | 1026.4 |
| 20260502230507 | 52 | 62 | 3.0 | 8.0 | 0.00 | 0.00 | 0.00 | 25 | 1026.2 |
| 20260502230006 | 51 | 315 | 3.0 | 4.0 | 0.00 | 0.00 | 0.00 | 29 | 1026.1 |
| 20260502225501 | 51 | 337 | 2.0 | 4.0 | 0.00 | 0.00 | 0.00 | 26 | 1026.2 |
| 20260502224958 | 51 | 305 | 1.0 | 2.0 | 0.00 | 0.00 | 0.00 | 25 | 1026.0 |
| 20260502224454 | 53 | 305 | 2.0 | 3.0 | 0.00 | 0.00 | 0.00 | 26 | 1026.1 |
| 20260502223951 | 53 | 305 | 4.0 | 7.0 | 0.00 | 0.00 | 0.00 | 25 | 1026.2 |
| 20260502223449 | 53 | 290 | 4.0 | 7.0 | 0.00 | 0.00 | 0.00 | 26 | 1026.4 |
| 20260502222947 | 51 | 256 | 1.0 | 6.0 | 0.00 | 0.00 | 0.00 | 24 | 1026.2 |
| 20260502222444 | 51 | 135 | 6.0 | 9.0 | 0.00 | 0.00 | 0.00 | 27 | 1026.4 |
| 20260502221939 | 52 | 258 | 0.0 | 2.0 | 0.00 | 0.00 | 0.00 | 28 | 1026.4 |
| 20260502221436 | 51 | 254 | 0.0 | 1.0 | 0.00 | 0.00 | 0.00 | 31 | 1026.2 |
| 20260502220933 | 50 | 273 | 2.0 | 3.0 | 0.00 | 0.00 | 0.00 | 30 | 1026.6 |
| 20260502220428 | 50 | 265 | 2.0 | 6.0 | 0.00 | 0.00 | 0.00 | 29 | 1026.5 |
| 20260502215925 | 50 | 152 | 3.0 | 7.0 | 0.00 | 0.00 | 0.00 | 30 | 1026.6 |
| 20260502215423 | 49 | 356 | 4.0 | 6.0 | 0.00 | 0.00 | 0.00 | 31 | 1026.5 |
| 20260502214920 | 49 | 299 | 1.0 | 8.0 | 0.00 | 0.00 | 0.00 | 32 | 1026.6 |
| 20260502214416 | 49 | 30 | 3.0 | 6.0 | 0.00 | 0.00 | 0.00 | 30 | 1026.8 |
| 20260502213914 | 50 | 254 | 1.0 | 6.0 | 0.00 | 0.00 | 0.00 | 32 | 1026.8 |
| 20260502213410 | 51 | 330 | 2.0 | 9.0 | 0.00 | 0.00 | 0.00 | 32 | 1026.9 |
| 20260502212909 | 52 | 349 | 4.0 | 6.0 | 0.00 | 0.00 | 0.00 | 31 | 1026.9 |
| 20260502212408 | 50 | 5 | 2.0 | 6.0 | 0.00 | 0.00 | 0.00 | 31 | 1026.9 |
| 20260502211904 | 50 | 354 | 1.0 | 10.0 | 0.00 | 0.00 | 0.00 | 33 | 1026.9 |
| 20260502211400 | 50 | 356 | 4.0 | 7.0 | 0.00 | 0.00 | 0.00 | 30 | 1026.9 |
| 20260502210858 | 52 | 69 | 7.0 | 9.0 | 0.00 | 0.00 | 0.00 | 30 | 1027.3 |
| 20260502210354 | 53 | 315 | 2.0 | 3.0 | 0.00 | 0.00 | 0.00 | 32 | 1027.3 |
| 20260502205852 | 53 | 245 | 2.0 | 10.0 | 0.00 | 0.00 | 0.00 | 30 | 1027.4 |
| 20260502205347 | 52 | 229 | 3.0 | 7.0 | 0.00 | 0.00 | 0.00 | 28 | 1027.4 |
| 20260502204845 | 53 | 346 | 4.0 | 7.0 | 0.00 | 0.00 | 0.00 | 29 | 1027.3 |
| 20260502204342 | 51 | 359 | 5.0 | 8.0 | 0.00 | 0.00 | 0.00 | 30 | 1027.5 |
| 20260502203840 | 52 | 260 | 1.0 | 6.0 | 0.00 | 0.00 | 0.00 | 29 | 1027.5 |
| 20260502203337 | 51 | 176 | 7.0 | 11.0 | 0.00 | 0.00 | 0.00 | 29 | 1027.4 |
| 20260502202832 | 52 | 42 | 5.0 | 7.0 | 0.00 | 0.00 | 0.00 | 28 | 1027.7 |
| 20260502202330 | 54 | 33 | 10.0 | 13.0 | 0.00 | 0.00 | 0.00 | 28 | 1027.7 |
| 20260502201828 | 51 | 336 | 2.0 | 7.0 | 0.00 | 0.00 | 0.00 | 31 | 1027.3 |
| 20260502201324 | 51 | 64 | 6.0 | 8.0 | 0.00 | 0.00 | 0.00 | 28 | 1027.5 |
| 20260502200820 | 51 | 293 | 3.0 | 6.0 | 0.00 | 0.00 | 0.00 | 26 | 1027.5 |
| 20260502200316 | 51 | 0 | 6.0 | 8.0 | 0.00 | 0.00 | 0.00 | 28 | 1027.7 |
| 20260502195814 | 53 | 356 | 5.0 | 8.0 | 0.00 | 0.00 | 0.00 | 28 | 1027.5 |
| 20260502195310 | 53 | 239 | 2.0 | 3.0 | 0.00 | 0.00 | 0.00 | 30 | 1027.3 |
| 20260502194807 | 52 | 262 | 2.0 | 3.0 | 0.00 | 0.00 | 0.00 | 27 | 1027.4 |
| 20260502194304 | 50 | 253 | 2.0 | 3.0 | 0.00 | 0.00 | 0.00 | 28 | 1027.7 |
| 20260502193800 | 51 | 91 | 5.0 | 8.0 | 0.00 | 0.00 | 0.00 | 26 | 1027.9 |
| 20260502193257 | 51 | 258 | 6.0 | 9.0 | 0.00 | 0.00 | 0.00 | 27 | 1027.8 |
| 20260502192752 | 51 | 294 | 1.0 | 7.0 | 0.00 | 0.00 | 0.00 | 32 | 1027.8 |
| 20260502192250 | 51 | 223 | 4.0 | 8.0 | 0.00 | 0.00 | 0.00 | 29 | 1027.8 |
| 20260502191746 | 51 | 259 | 3.0 | 7.0 | 0.00 | 0.00 | 0.00 | 28 | 1027.8 |
| 20260502191244 | 50 | 224 | 2.0 | 3.0 | 0.00 | 0.00 | 0.00 | 27 | 1027.9 |
| 20260502190741 | 49 | 230 | 3.0 | 8.0 | 0.00 | 0.00 | 0.00 | 28 | 1027.8 |
| 20260502190238 | 50 | 53 | 8.0 | 10.0 | 0.00 | 0.00 | 0.00 | 28 | 1028.1 |
| 20260502185733 | 49 | 340 | 5.0 | 8.0 | 0.00 | 0.00 | 0.00 | 31 | 1028.1 |
| 20260502185229 | 50 | 209 | 1.0 | 6.0 | 0.00 | 0.00 | 0.00 | 26 | 1028.1 |
| 20260502184726 | 50 | 229 | 4.0 | 6.0 | 0.00 | 0.00 | 0.00 | 25 | 1027.9 |
| 20260502184222 | 49 | 130 | 1.0 | 6.0 | 0.00 | 0.00 | 0.00 | 31 | 1028.1 |
| 20260502183719 | 50 | 323 | 1.0 | 6.0 | 0.00 | 0.00 | 0.00 | 27 | 1028.2 |
| 20260502183214 | 51 | 275 | 1.0 | 4.0 | 0.00 | 0.00 | 0.00 | 33 | 1028.2 |
| 20260502182710 | 48 | 28 | 2.0 | 4.0 | 0.00 | 0.00 | 0.00 | 29 | 1028.3 |
| 20260502182205 | 48 | 100 | 3.0 | 4.0 | 0.00 | 0.00 | 0.00 | 28 | 1028.5 |
| 20260502181703 | 48 | 29 | 2.0 | 7.0 | 0.00 | 0.00 | 0.00 | 29 | 1028.2 |
| 20260502181202 | 47 | 9 | 2.0 | 9.0 | 0.00 | 0.00 | 0.00 | 34 | 1028.3 |
| 20260502180659 | 50 | 156 | 1.0 | 4.0 | 0.00 | 0.00 | 0.00 | 30 | 1028.5 |
| 20260502180156 | 47 | 79 | 3.0 | 4.0 | 0.00 | 0.00 | 0.00 | 30 | 1028.7 |
| 20260502170120 | 48 | 234 | 2.0 | 3.0 | 0.00 | 0.00 | 0.00 | 32 | 1028.5 |
| 20260502164107 | 44 | 287 | 4.0 | 9.0 | 0.00 | 0.00 | 0.00 | 32 | 1028.3 |
| 20260502163603 | 45 | 348 | 4.0 | 7.0 | 0.00 | 0.00 | 0.00 | 32 | 1028.3 |
| 20260502163059 | 44 | 25 | 3.0 | 6.0 | 0.00 | 0.00 | 0.00 | 31 | 1028.3 |
| 20260502162556 | 45 | 315 | 8.0 | 9.0 | 0.00 | 0.00 | 0.00 | 32 | 1028.6 |
| 20260502162054 | 45 | 309 | 1.0 | 3.0 | 0.00 | 0.00 | 0.00 | 33 | 1028.5 |
| 20260502161550 | 44 | 333 | 3.0 | 7.0 | 0.00 | 0.00 | 0.00 | 34 | 1028.5 |
| 20260502161048 | 45 | 287 | 4.0 | 8.0 | 0.00 | 0.00 | 0.00 | 32 | 1028.3 |
| 20260502160546 | 44 | 253 | 0.0 | 4.0 | 0.00 | 0.00 | 0.00 | 35 | 1028.3 |
| 20260502151959 | 42 | 251 | 0.0 | 1.0 | 0.00 | 0.00 | 0.00 | 35 | 1028.6 |
| 20260502151455 | 42 | 325 | 5.0 | 6.0 | 0.00 | 0.00 | 0.00 | 34 | 1029.0 |
| 20260502150953 | 42 | 265 | 0.0 | 3.0 | 0.00 | 0.00 | 0.00 | 32 | 1028.9 |
| 20260502150450 | 41 | 297 | 1.0 | 2.0 | 0.00 | 0.00 | 0.00 | 34 | 1028.9 |
| 20260502130336 | 35 | 246 | 0.0 | 3.0 | 0.00 | 0.00 | 0.00 | 49 | 1028.5 |
| 20260502123318 | 32 | 246 | 2.0 | 2.0 | 0.00 | 0.00 | 0.00 | 57 | 1028.3 |
| 20260502122815 | 32 | 228 | 2.0 | 4.0 | 0.00 | 0.00 | 0.00 | 55 | 1028.2 |
| 20260502122310 | 32 | 225 | 3.0 | 3.0 | 0.00 | 0.00 | 0.00 | 55 | 1028.3 |
| 20260502121809 | 31 | 220 | 3.0 | 3.0 | 0.00 | 0.00 | 0.00 | 55 | 1028.3 |
| 20260502121306 | 31 | 229 | 2.0 | 3.0 | 0.00 | 0.00 | 0.00 | 55 | 1028.3 |
| 20260502120803 | 32 | 239 | 3.0 | 4.0 | 0.00 | 0.00 | 0.00 | 54 | 1028.2 |
| 20260502120300 | 32 | 219 | 3.0 | 4.0 | 0.00 | 0.00 | 0.00 | 54 | 1027.8 |
| 20260502115757 | 30 | 235 | 2.0 | 3.0 | 0.00 | 0.00 | 0.00 | 57 | 1028.2 |
| 20260502115254 | 31 | 214 | 2.0 | 3.0 | 0.00 | 0.00 | 0.00 | 55 | 1028.1 |
| 20260502114750 | 31 | 222 | 2.0 | 3.0 | 0.00 | 0.00 | 0.00 | 57 | 1027.8 |
| 20260502114247 | 31 | 216 | 3.0 | 4.0 | 0.00 | 0.00 | 0.00 | 57 | 1028.1 |
| 20260502113744 | 30 | 230 | 1.0 | 3.0 | 0.00 | 0.00 | 0.00 | 60 | 1028.1 |
| 20260502113242 | 30 | 217 | 2.0 | 3.0 | 0.00 | 0.00 | 0.00 | 61 | 1028.2 |
| 20260502112740 | 30 | 211 | 3.0 | 3.0 | 0.00 | 0.00 | 0.00 | 61 | 1027.9 |
| 20260502112237 | 31 | 222 | 3.0 | 3.0 | 0.00 | 0.00 | 0.00 | 58 | 1027.9 |
| 20260502111734 | 31 | 228 | 2.0 | 3.0 | 0.00 | 0.00 | 0.00 | 61 | 1028.1 |
| 20260502111232 | 32 | 228 | 4.0 | 4.0 | 0.00 | 0.00 | 0.00 | 56 | 1027.9 |
| 20260502110729 | 32 | 242 | 3.0 | 6.0 | 0.00 | 0.00 | 0.00 | 55 | 1028.2 |
| 20260502110227 | 32 | 230 | 3.0 | 4.0 | 0.00 | 0.00 | 0.00 | 55 | 1028.1 |
| 20260502105724 | 32 | 223 | 3.0 | 4.0 | 0.00 | 0.00 | 0.00 | 55 | 1028.1 |
| 20260502105220 | 32 | 225 | 2.0 | 4.0 | 0.00 | 0.00 | 0.00 | 57 | 1027.8 |
| 20260502104718 | 32 | 198 | 4.0 | 6.0 | 0.00 | 0.00 | 0.00 | 55 | 1028.1 |
| 20260502104216 | 31 | 251 | 3.0 | 6.0 | 0.00 | 0.00 | 0.00 | 57 | 1028.2 |
| 20260502103713 | 32 | 237 | 3.0 | 4.0 | 0.00 | 0.00 | 0.00 | 56 | 1028.1 |
| 20260502103211 | 32 | 222 | 2.0 | 3.0 | 0.00 | 0.00 | 0.00 | 58 | 1028.2 |
| 20260502102707 | 32 | 230 | 3.0 | 4.0 | 0.00 | 0.00 | 0.00 | 57 | 1028.1 |
| 20260502102204 | 31 | 239 | 2.0 | 7.0 | 0.00 | 0.00 | 0.00 | 57 | 1028.2 |
| 20260502101702 | 30 | 222 | 2.0 | 3.0 | 0.00 | 0.00 | 0.00 | 64 | 1027.9 |
| 20260502101200 | 30 | 229 | 4.0 | 4.0 | 0.00 | 0.00 | 0.00 | 64 | 1028.2 |
| 20260502100658 | 30 | 233 | 2.0 | 3.0 | 0.00 | 0.00 | 0.00 | 63 | 1027.9 |
| 20260502100156 | 30 | 216 | 3.0 | 4.0 | 0.00 | 0.00 | 0.00 | 65 | 1027.9 |
| 20260502091130 | 27 | 218 | 3.0 | 4.0 | 0.00 | 0.00 | 0.00 | 75 | 1027.8 |
| 20260502090627 | 27 | 201 | 3.0 | 3.0 | 0.00 | 0.00 | 0.00 | 77 | 1027.8 |
| 20260502090124 | 27 | 209 | 3.0 | 3.0 | 0.00 | 0.00 | 0.00 | 77 | 1027.7 |
| 20260502071522 | 27 | 204 | 3.0 | 3.0 | 0.00 | 0.00 | 0.00 | 81 | 1028.3 |
| 20260502071020 | 27 | 212 | 3.0 | 4.0 | 0.00 | 0.00 | 0.00 | 79 | 1028.3 |
| 20260502070518 | 27 | 206 | 3.0 | 3.0 | 0.00 | 0.00 | 0.00 | 81 | 1028.5 |
| 20260502070016 | 27 | 211 | 3.0 | 3.0 | 0.00 | 0.00 | 0.00 | 82 | 1028.5 |
| 20260502065514 | 26 | 212 | 3.0 | 3.0 | 0.00 | 0.00 | 0.00 | 82 | 1028.3 |
| 20260502065011 | 26 | 210 | 2.0 | 3.0 | 0.00 | 0.00 | 0.00 | 83 | 1028.6 |
| 20260502064510 | 26 | 215 | 2.0 | 3.0 | 0.00 | 0.00 | 0.00 | 83 | 1028.6 |
| 20260502064006 | 26 | 208 | 3.0 | 3.0 | 0.00 | 0.00 | 0.00 | 83 | 1028.6 |
| 20260502063504 | 26 | 208 | 3.0 | 3.0 | 0.00 | 0.00 | 0.00 | 83 | 1028.5 |
| 20260502063002 | 27 | 211 | 2.0 | 3.0 | 0.00 | 0.00 | 0.00 | 83 | 1028.6 |
| 20260502062458 | 27 | 207 | 3.0 | 3.0 | 0.00 | 0.00 | 0.00 | 83 | 1028.7 |
| 20260502061957 | 27 | 211 | 3.0 | 3.0 | 0.00 | 0.00 | 0.00 | 84 | 1028.6 |
| 20260502061454 | 27 | 210 | 2.0 | 3.0 | 0.00 | 0.00 | 0.00 | 83 | 1028.5 |
| 20260502060950 | 27 | 214 | 2.0 | 3.0 | 0.00 | 0.00 | 0.00 | 84 | 1028.6 |
| 20260502060446 | 27 | 218 | 2.0 | 2.0 | 0.00 | 0.00 | 0.00 | 83 | 1028.6 |
| 20260502055943 | 27 | 219 | 2.0 | 3.0 | 0.00 | 0.35 | 0.35 | 82 | 1029.0 |
| 20260502055440 | 27 | 215 | 2.0 | 3.0 | 0.00 | 0.35 | 0.35 | 83 | 1028.5 |
| 20260502054935 | 27 | 220 | 2.0 | 2.0 | 0.00 | 0.35 | 0.35 | 83 | 1028.7 |
| 20260502054432 | 27 | 212 | 3.0 | 3.0 | 0.00 | 0.35 | 0.35 | 83 | 1028.5 |
| 20260502053929 | 27 | 218 | 2.0 | 3.0 | 0.00 | 0.35 | 0.35 | 83 | 1028.7 |
| 20260502053426 | 27 | 209 | 3.0 | 3.0 | 0.00 | 0.35 | 0.35 | 83 | 1028.7 |
| 20260502052924 | 28 | 214 | 2.0 | 3.0 | 0.00 | 0.35 | 0.35 | 84 | 1028.6 |
| 20260502052422 | 28 | 220 | 3.0 | 3.0 | 0.00 | 0.35 | 0.35 | 82 | 1028.7 |
| 20260502051920 | 28 | 207 | 3.0 | 3.0 | 0.00 | 0.35 | 0.35 | 80 | 1028.6 |
| 20260502051418 | 28 | 201 | 3.0 | 3.0 | 0.00 | 0.35 | 0.35 | 80 | 1028.6 |
| 20260502050914 | 28 | 222 | 2.0 | 3.0 | 0.00 | 0.35 | 0.35 | 80 | 1028.6 |
| 20260502050411 | 28 | 225 | 1.0 | 3.0 | 0.00 | 0.35 | 0.35 | 80 | 1028.5 |
| 20260502045908 | 28 | 225 | 2.0 | 3.0 | 0.00 | 0.35 | 0.35 | 80 | 1028.6 |
| 20260502045405 | 28 | 212 | 3.0 | 3.0 | 0.00 | 0.35 | 0.35 | 79 | 1028.6 |
| 20260502044902 | 29 | 207 | 2.0 | 3.0 | 0.00 | 0.35 | 0.35 | 79 | 1028.6 |
| 20260502044358 | 29 | 233 | 1.0 | 2.0 | 0.00 | 0.35 | 0.35 | 79 | 1028.5 |
| 20260502043855 | 29 | 246 | 2.0 | 3.0 | 0.00 | 0.35 | 0.35 | 80 | 1028.3 |
| 20260502043353 | 29 | 242 | 0.0 | 2.0 | 0.00 | 0.35 | 0.35 | 80 | 1028.3 |
| 20260502042852 | 29 | 225 | 1.0 | 2.0 | 0.00 | 0.35 | 0.35 | 82 | 1028.2 |
| 20260502042350 | 29 | 211 | 2.0 | 3.0 | 0.00 | 0.35 | 0.35 | 80 | 1028.5 |
| 20260502041847 | 29 | 226 | 1.0 | 2.0 | 0.00 | 0.35 | 0.35 | 82 | 1028.3 |
| 20260502041344 | 29 | 225 | 2.0 | 3.0 | 0.00 | 0.35 | 0.35 | 82 | 1028.3 |
| 20260502040841 | 28 | 202 | 3.0 | 3.0 | 0.00 | 0.35 | 0.35 | 81 | 1028.3 |
| 20260502040338 | 28 | 215 | 2.0 | 3.0 | 0.00 | 0.35 | 0.35 | 83 | 1028.3 |
| 20260502035834 | 29 | 226 | 2.0 | 3.0 | 0.00 | 0.35 | 0.35 | 83 | 1028.1 |
| 20260502035331 | 29 | 215 | 2.0 | 3.0 | 0.00 | 0.35 | 0.35 | 84 | 1027.9 |
| 20260502034828 | 29 | 211 | 2.0 | 3.0 | 0.00 | 0.35 | 0.35 | 83 | 1028.1 |
| 20260502034326 | 29 | 216 | 3.0 | 3.0 | 0.00 | 0.35 | 0.35 | 82 | 1028.2 |
| 20260502033825 | 29 | 206 | 3.0 | 3.0 | 0.00 | 0.35 | 0.35 | 83 | 1027.9 |
| 20260502033322 | 29 | 207 | 3.0 | 3.0 | 0.00 | 0.35 | 0.35 | 83 | 1027.7 |
| 20260502032818 | 29 | 210 | 3.0 | 3.0 | 0.00 | 0.35 | 0.35 | 82 | 1027.8 |
| 20260502032314 | 29 | 209 | 3.0 | 3.0 | 0.00 | 0.35 | 0.35 | 82 | 1027.5 |
| 20260502031812 | 29 | 214 | 3.0 | 3.0 | 0.00 | 0.35 | 0.35 | 82 | 1027.8 |
| 20260502031310 | 30 | 210 | 3.0 | 3.0 | 0.00 | 0.35 | 0.35 | 82 | 1027.7 |
| 20260502030809 | 29 | 220 | 3.0 | 3.0 | 0.00 | 0.35 | 0.35 | 82 | 1027.5 |
| 20260502030306 | 30 | 212 | 2.0 | 3.0 | 0.00 | 0.35 | 0.35 | 82 | 1027.5 |
| 20260502025803 | 30 | 216 | 3.0 | 3.0 | 0.00 | 0.35 | 0.35 | 81 | 1027.4 |
| 20260502025301 | 30 | 211 | 3.0 | 3.0 | 0.00 | 0.35 | 0.35 | 81 | 1027.4 |
| 20260502024759 | 30 | 210 | 3.0 | 3.0 | 0.00 | 0.35 | 0.35 | 83 | 1027.4 |
| 20260502024256 | 30 | 209 | 3.0 | 3.0 | 0.00 | 0.35 | 0.35 | 82 | 1027.1 |
| 20260502023754 | 30 | 216 | 2.0 | 3.0 | 0.00 | 0.35 | 0.35 | 81 | 1027.3 |
| 20260502023252 | 30 | 220 | 3.0 | 3.0 | 0.00 | 0.35 | 0.35 | 82 | 1027.0 |
| 20260502022749 | 30 | 212 | 3.0 | 3.0 | 0.00 | 0.35 | 0.35 | 81 | 1027.0 |
| 20260502022245 | 30 | 208 | 3.0 | 3.0 | 0.00 | 0.35 | 0.35 | 83 | 1027.0 |
| 20260502021742 | 30 | 214 | 3.0 | 3.0 | 0.00 | 0.35 | 0.35 | 81 | 1027.0 |
| 20260502021240 | 30 | 214 | 3.0 | 3.0 | 0.00 | 0.35 | 0.35 | 84 | 1026.8 |
| 20260502020737 | 30 | 208 | 3.0 | 3.0 | 0.00 | 0.35 | 0.35 | 82 | 1026.9 |
| 20260502020234 | 31 | 215 | 3.0 | 3.0 | 0.00 | 0.35 | 0.35 | 81 | 1026.9 |
| 20260502015732 | 31 | 220 | 2.0 | 3.0 | 0.00 | 0.35 | 0.35 | 81 | 1026.9 |
| 20260502015228 | 31 | 212 | 3.0 | 3.0 | 0.00 | 0.35 | 0.35 | 81 | 1026.9 |
| 20260502014725 | 31 | 213 | 2.0 | 3.0 | 0.00 | 0.35 | 0.35 | 79 | 1026.4 |
| 20260502014222 | 32 | 220 | 2.0 | 3.0 | 0.00 | 0.35 | 0.35 | 79 | 1026.5 |
| 20260502013719 | 32 | 221 | 2.0 | 2.0 | 0.00 | 0.35 | 0.35 | 78 | 1026.5 |
| 20260502013214 | 33 | 218 | 2.0 | 3.0 | 0.00 | 0.35 | 0.35 | 77 | 1026.6 |
| 20260502012711 | 35 | 233 | 0.0 | 0.0 | 0.00 | 0.35 | 0.35 | 77 | 1026.5 |
| 20260502012209 | 36 | 269 | 0.0 | 0.0 | 0.00 | 0.35 | 0.35 | 54 | 1026.4 |
| 20260502011706 | 37 | 253 | 0.0 | 0.0 | 0.00 | 0.35 | 0.35 | 66 | 1026.5 |
| 20260502011201 | 38 | 256 | 0.0 | 0.0 | 0.00 | 0.35 | 0.35 | 60 | 1026.2 |
| 20260502010700 | 38 | 262 | 0.0 | 0.0 | 0.00 | 0.35 | 0.35 | 49 | 1026.2 |
| 20260502010155 | 38 | 291 | 2.0 | 3.0 | 0.00 | 0.35 | 0.35 | 51 | 1026.5 |
| 20260502005653 | 38 | 305 | 2.0 | 3.0 | 0.00 | 0.35 | 0.35 | 51 | 1026.4 |
| 20260502005150 | 38 | 264 | 0.0 | 6.0 | 0.00 | 0.35 | 0.35 | 50 | 1026.6 |
| 20260502004646 | 38 | 309 | 1.0 | 2.0 | 0.00 | 0.35 | 0.35 | 51 | 1026.4 |
| 20260502004143 | 38 | 313 | 0.0 | 1.0 | 0.00 | 0.35 | 0.35 | 54 | 1026.4 |
| 20260502003641 | 39 | 267 | 2.0 | 2.0 | 0.00 | 0.35 | 0.35 | 48 | 1026.2 |
| 20260502003138 | 39 | 253 | 1.0 | 2.0 | 0.00 | 0.35 | 0.35 | 52 | 1026.0 |